RYR3UR LICJ-LIPQ

Flight info

Callsign RYR3UR
Flight time 1h 10m
Altitude 34000
Route LURON DCT DORAS DCT UNIXO DCT GITOD DCT GIPUK DCT LOBSI DCT CHI
Aircraft B738/M-SDE2E3FGHIRWXY/LB1

Departure

Time 2026-05-07 08:22
Airport Falcone–Borsellino Airport (LICJ)

Arrival

Time 2026-05-07 09:32
Airport Trieste Airport (LIPQ)
Time Latitude Longitude Altitude Speed Heading
2026-05-07 07:54 38.18325 13.10220 68 ft 0 kts 246°
2026-05-07 08:16 38.18320 13.10204 67 ft 4 kts 246°
2026-05-07 08:16 38.18305 13.10160 67 ft 6 kts 246°
2026-05-07 08:17 38.18276 13.10112 66 ft 6 kts 200°
2026-05-07 08:17 38.18249 13.10116 68 ft 2 kts 160°
2026-05-07 08:17 38.18218 13.10130 70 ft 7 kts 160°
2026-05-07 08:17 38.18150 13.10147 73 ft 12 kts 207°
2026-05-07 08:18 38.18093 13.10006 69 ft 24 kts 248°
2026-05-07 08:18 38.18017 13.09779 67 ft 30 kts 246°
2026-05-07 08:18 38.17934 13.09534 61 ft 29 kts 247°
2026-05-07 08:18 38.17850 13.09288 55 ft 31 kts 247°
2026-05-07 08:19 38.17781 13.09080 52 ft 23 kts 248°
2026-05-07 08:19 38.17724 13.08939 50 ft 16 kts 224°
2026-05-07 08:19 38.17665 13.08881 51 ft 1 kts 216°
2026-05-07 08:20 38.17662 13.08877 51 ft 3 kts 216°
2026-05-07 08:20 38.17618 13.08837 51 ft 13 kts 216°
2026-05-07 08:20 38.17523 13.08760 51 ft 13 kts 184°
2026-05-07 08:20 38.17487 13.08832 54 ft 10 kts 64°
2026-05-07 08:21 38.17522 13.08919 55 ft 18 kts 68°
2026-05-07 08:21 38.17662 13.09342 59 ft 82 kts 66°
2026-05-07 08:21 38.17962 13.10224 84 ft 132 kts 68°
2026-05-07 08:21 38.18379 13.11439 263 ft 158 kts 69°
2026-05-07 08:22 38.18805 13.12668 897 ft 156 kts 69°
2026-05-07 08:22 38.19207 13.13931 1476 ft 158 kts 71°
2026-05-07 08:22 38.19642 13.15303 1774 ft 179 kts 69°
2026-05-07 08:22 38.20149 13.16818 2214 ft 192 kts 69°
2026-05-07 08:23 38.20713 13.18473 2551 ft 214 kts 64°
2026-05-07 08:23 38.21658 13.19981 3064 ft 230 kts 42°
2026-05-07 08:23 38.23107 13.20995 3572 ft 245 kts 23°
2026-05-07 08:23 38.24740 13.21702 4138 ft 255 kts 22°
2026-05-07 08:24 38.26451 13.22490 4611 ft 268 kts 24°
2026-05-07 08:24 38.28203 13.23273 5345 ft 272 kts 14°
2026-05-07 08:24 38.30143 13.23277 6045 ft 281 kts 354°
2026-05-07 08:24 38.32052 13.22778 6763 ft 285 kts 349°
2026-05-07 08:25 38.33986 13.22230 7427 ft 291 kts 350°
2026-05-07 08:25 38.35986 13.21733 8154 ft 294 kts 351°
2026-05-07 08:25 38.38023 13.21292 8816 ft 300 kts 352°
2026-05-07 08:25 38.40090 13.20877 9480 ft 306 kts 352°
2026-05-07 08:26 38.44372 13.20026 10727 ft 324 kts 351°
2026-05-07 08:26 38.46651 13.19568 11160 ft 340 kts 350°
2026-05-07 08:26 38.49031 13.19086 11618 ft 354 kts 350°
2026-05-07 08:27 38.51488 13.18589 12227 ft 363 kts 349°
2026-05-07 08:27 38.53998 13.18081 12902 ft 369 kts 349°
2026-05-07 08:27 38.56560 13.17561 13687 ft 372 kts 348°
2026-05-07 08:27 38.59117 13.17043 14492 ft 374 kts 348°
2026-05-07 08:28 38.61656 13.16528 15346 ft 375 kts 348°
2026-05-07 08:28 38.64247 13.16001 16070 ft 379 kts 348°
2026-05-07 08:28 38.66849 13.15471 16850 ft 381 kts 348°
2026-05-07 08:28 38.69488 13.14935 17536 ft 386 kts 347°
2026-05-07 08:29 38.72120 13.14397 18272 ft 388 kts 347°
2026-05-07 08:29 38.74804 13.13850 19013 ft 390 kts 347°
2026-05-07 08:29 38.77457 13.13309 19640 ft 394 kts 347°
2026-05-07 08:29 38.80180 13.12754 20299 ft 397 kts 347°
2026-05-07 08:30 38.82914 13.12196 20940 ft 400 kts 346°
2026-05-07 08:30 38.85674 13.11643 21476 ft 405 kts 347°
2026-05-07 08:30 38.88479 13.11235 22078 ft 410 kts 351°
2026-05-07 08:30 38.91321 13.10974 22706 ft 413 kts 352°
2026-05-07 08:31 38.94187 13.10780 23355 ft 414 kts 353°
2026-05-07 08:31 38.97100 13.10605 23939 ft 417 kts 352°
2026-05-07 08:31 39.00009 13.10427 24439 ft 421 kts 352°
2026-05-07 08:31 39.02911 13.10243 25055 ft 421 kts 351°
2026-05-07 08:32 39.05826 13.10049 25633 ft 422 kts 351°
2026-05-07 08:32 39.08776 13.09843 26010 ft 428 kts 350°
2026-05-07 08:32 39.11748 13.09629 26572 ft 428 kts 350°
2026-05-07 08:32 39.14702 13.09415 27093 ft 430 kts 349°
2026-05-07 08:33 39.17734 13.09188 27487 ft 434 kts 349°
2026-05-07 08:33 39.20737 13.08964 28016 ft 435 kts 348°
2026-05-07 08:33 39.23760 13.08736 28471 ft 437 kts 349°
2026-05-07 08:33 39.26797 13.08507 28847 ft 441 kts 348°
2026-05-07 08:34 39.29850 13.08277 29448 ft 439 kts 348°
2026-05-07 08:34 39.32862 13.08056 30201 ft 432 kts 347°
2026-05-07 08:34 39.35848 13.07842 30913 ft 426 kts 347°
2026-05-07 08:34 39.38794 13.07628 31494 ft 423 kts 346°
2026-05-07 08:35 39.41692 13.07413 32060 ft 419 kts 345°
2026-05-07 08:35 39.44576 13.07198 32584 ft 417 kts 344°
2026-05-07 08:35 39.47501 13.06973 33074 ft 414 kts 344°
2026-05-07 08:35 39.50377 13.06753 33489 ft 413 kts 344°
2026-05-07 08:36 39.53220 13.06536 33926 ft 411 kts 344°
2026-05-07 08:36 39.56079 13.06312 33971 ft 417 kts 343°
2026-05-07 08:36 39.61807 13.05397 33969 ft 411 kts 336°
2026-05-07 08:37 39.67516 13.03977 33977 ft 428 kts 340°
2026-05-07 08:37 39.73542 13.03057 33977 ft 442 kts 343°
2026-05-07 08:38 39.79670 13.02316 33984 ft 440 kts 343°
2026-05-07 08:38 39.85756 13.01593 33975 ft 440 kts 343°
2026-05-07 08:39 39.91857 13.00839 33982 ft 440 kts 343°
2026-05-07 08:39 39.97971 13.00059 34005 ft 442 kts 344°
2026-05-07 08:40 40.04101 12.99267 33998 ft 444 kts 344°
2026-05-07 08:40 40.10193 12.98477 33987 ft 439 kts 344°
2026-05-07 08:41 40.16266 12.97687 33991 ft 438 kts 344°
2026-05-07 08:41 40.22368 12.96879 33987 ft 444 kts 344°
2026-05-07 08:42 40.28484 12.96067 33988 ft 446 kts 344°
2026-05-07 08:42 40.34660 12.95258 33984 ft 443 kts 344°
2026-05-07 08:43 40.40856 12.94439 34005 ft 450 kts 344°
2026-05-07 08:43 40.47030 12.93626 33999 ft 447 kts 345°
2026-05-07 08:44 40.53202 12.92818 33996 ft 443 kts 344°
2026-05-07 08:44 40.59325 12.92007 34012 ft 447 kts 345°
2026-05-07 08:45 40.65505 12.91181 33997 ft 447 kts 345°
2026-05-07 08:45 40.71698 12.90358 34002 ft 450 kts 345°
2026-05-07 08:46 40.77976 12.89513 34006 ft 454 kts 345°
2026-05-07 08:46 40.84215 12.88686 34009 ft 451 kts 345°
2026-05-07 08:47 40.90418 12.87860 34007 ft 450 kts 345°
2026-05-07 08:47 40.96684 12.87011 34012 ft 452 kts 345°
2026-05-07 08:48 41.02934 12.86169 34010 ft 454 kts 345°
2026-05-07 08:48 41.09161 12.85334 34006 ft 451 kts 345°
2026-05-07 08:49 41.15436 12.84489 34004 ft 452 kts 345°
2026-05-07 08:49 41.21703 12.83641 34013 ft 455 kts 345°
2026-05-07 08:50 41.27998 12.82788 34009 ft 455 kts 345°
2026-05-07 08:50 41.34316 12.81935 34016 ft 455 kts 345°
2026-05-07 08:51 41.40591 12.81080 34010 ft 456 kts 345°
2026-05-07 08:51 41.46914 12.80218 34017 ft 455 kts 345°
2026-05-07 08:52 41.53229 12.79354 34016 ft 459 kts 345°
2026-05-07 08:52 41.59598 12.78486 34023 ft 459 kts 345°
2026-05-07 08:53 41.65928 12.77622 34026 ft 458 kts 345°
2026-05-07 08:53 41.72299 12.76746 34028 ft 459 kts 345°
2026-05-07 08:54 41.78652 12.75871 34034 ft 461 kts 345°
2026-05-07 08:54 41.85023 12.74993 34031 ft 459 kts 345°
2026-05-07 08:55 41.91383 12.74115 34025 ft 459 kts 345°
2026-05-07 08:55 41.97752 12.73235 34023 ft 460 kts 345°
2026-05-07 08:56 42.04121 12.72346 34024 ft 463 kts 346°
2026-05-07 08:56 42.10537 12.71454 34023 ft 462 kts 345°
2026-05-07 08:57 42.16987 12.70557 34034 ft 467 kts 346°
2026-05-07 08:57 42.23429 12.69659 34031 ft 466 kts 346°
2026-05-07 08:58 42.29881 12.68761 34033 ft 464 kts 346°
2026-05-07 08:58 42.36308 12.67864 34031 ft 466 kts 346°
2026-05-07 08:59 42.42781 12.66949 34038 ft 465 kts 346°
2026-05-07 08:59 42.49234 12.66044 34034 ft 467 kts 346°
2026-05-07 09:00 42.55690 12.65133 34051 ft 468 kts 346°
2026-05-07 09:00 42.62200 12.64210 34035 ft 472 kts 347°
2026-05-07 09:01 42.68711 12.63292 34033 ft 471 kts 346°
2026-05-07 09:01 42.75264 12.62362 34023 ft 473 kts 347°
2026-05-07 09:02 42.81807 12.61434 34023 ft 473 kts 347°
2026-05-07 09:02 42.88336 12.60504 34027 ft 473 kts 347°
2026-05-07 09:03 42.94889 12.59569 34035 ft 473 kts 347°
2026-05-07 09:03 43.01472 12.58627 34039 ft 475 kts 347°
2026-05-07 09:04 43.08057 12.57682 34036 ft 475 kts 347°
2026-05-07 09:04 43.14648 12.56739 34038 ft 476 kts 347°
2026-05-07 09:05 43.21233 12.55789 34037 ft 478 kts 347°
2026-05-07 09:05 43.27804 12.54842 34038 ft 477 kts 347°
2026-05-07 09:06 43.34388 12.53891 34032 ft 479 kts 347°
2026-05-07 09:06 43.40998 12.52933 34023 ft 477 kts 347°
2026-05-07 09:07 43.47590 12.51979 34019 ft 478 kts 347°
2026-05-07 09:07 43.54270 12.51003 34016 ft 481 kts 347°
2026-05-07 09:08 43.60906 12.50037 34011 ft 480 kts 347°
2026-05-07 09:08 43.67494 12.49075 34010 ft 480 kts 347°
2026-05-07 09:09 43.74139 12.48103 34005 ft 479 kts 347°
2026-05-07 09:09 43.80780 12.47124 34003 ft 482 kts 347°
2026-05-07 09:10 43.87396 12.46150 34005 ft 482 kts 347°
2026-05-07 09:10 43.94052 12.45168 34002 ft 480 kts 347°
2026-05-07 09:11 44.00694 12.44183 34001 ft 480 kts 347°
2026-05-07 09:11 44.07355 12.43195 33994 ft 484 kts 347°
2026-05-07 09:12 44.14046 12.42201 33993 ft 482 kts 347°
2026-05-07 09:12 44.20728 12.41211 33993 ft 483 kts 347°
2026-05-07 09:13 44.27419 12.40214 33987 ft 484 kts 347°
2026-05-07 09:13 44.34120 12.39213 33976 ft 484 kts 347°
2026-05-07 09:14 44.40778 12.38217 33988 ft 483 kts 347°
2026-05-07 09:14 44.47434 12.37218 33953 ft 482 kts 347°
2026-05-07 09:15 44.50785 12.36712 33693 ft 484 kts 347°
2026-05-07 09:15 44.54131 12.36208 33369 ft 483 kts 347°
2026-05-07 09:15 44.57462 12.35706 32903 ft 483 kts 347°
2026-05-07 09:15 44.60791 12.35203 32384 ft 484 kts 348°
2026-05-07 09:16 44.64163 12.34693 31827 ft 484 kts 347°
2026-05-07 09:16 44.67495 12.34189 31283 ft 483 kts 347°
2026-05-07 09:16 44.70832 12.33683 30735 ft 485 kts 347°
2026-05-07 09:16 44.74199 12.33170 30176 ft 488 kts 347°
2026-05-07 09:17 44.77560 12.32658 29614 ft 487 kts 347°
2026-05-07 09:17 44.80896 12.32151 29066 ft 489 kts 347°
2026-05-07 09:17 44.84290 12.31738 28362 ft 492 kts 351°
2026-05-07 09:17 44.87755 12.31844 27380 ft 502 kts
2026-05-07 09:18 44.91214 12.32648 26287 ft 512 kts
2026-05-07 09:18 44.94620 12.34174 25266 ft 519 kts 19°
2026-05-07 09:18 44.97837 12.36410 24686 ft 513 kts 28°
2026-05-07 09:18 45.00731 12.39135 23571 ft 505 kts 36°
2026-05-07 09:19 45.03421 12.42289 22452 ft 496 kts 41°
2026-05-07 09:19 45.05928 12.45527 21443 ft 484 kts 41°
2026-05-07 09:19 45.08374 12.48622 20402 ft 473 kts 39°
2026-05-07 09:19 45.10885 12.51579 19368 ft 462 kts 37°
2026-05-07 09:20 45.13382 12.54335 18220 ft 454 kts 36°
2026-05-07 09:20 45.15852 12.56943 17096 ft 445 kts 34°
2026-05-07 09:20 45.18348 12.59477 15912 ft 438 kts 33°
2026-05-07 09:20 45.20780 12.61866 14815 ft 429 kts 33°
2026-05-07 09:21 45.23201 12.64188 13750 ft 420 kts 32°
2026-05-07 09:21 45.25613 12.66465 12763 ft 409 kts 33°
2026-05-07 09:21 45.27947 12.68648 12467 ft 398 kts 32°
2026-05-07 09:21 45.30256 12.70802 12109 ft 397 kts 32°
2026-05-07 09:22 45.32550 12.72941 11539 ft 395 kts 33°
2026-05-07 09:22 45.34828 12.75069 11068 ft 389 kts 33°
2026-05-07 09:22 45.37062 12.77160 10596 ft 385 kts 33°
2026-05-07 09:22 45.39288 12.79248 10138 ft 382 kts 33°
2026-05-07 09:23 45.41473 12.81301 9823 ft 377 kts 33°
2026-05-07 09:23 45.43675 12.83372 9331 ft 379 kts 33°
2026-05-07 09:23 45.45845 12.85415 8860 ft 372 kts 33°
2026-05-07 09:23 45.47966 12.87414 8415 ft 368 kts 33°
2026-05-07 09:24 45.50113 12.89438 7975 ft 365 kts 33°
2026-05-07 09:24 45.52220 12.91428 7529 ft 363 kts 33°
2026-05-07 09:24 45.54294 12.93387 7095 ft 359 kts 33°
2026-05-07 09:24 45.56352 12.95333 6670 ft 357 kts 33°
2026-05-07 09:25 45.58403 12.97275 6368 ft 351 kts 33°
2026-05-07 09:25 45.60457 12.99221 6131 ft 353 kts 33°
2026-05-07 09:25 45.62451 13.01112 5733 ft 334 kts 33°
2026-05-07 09:25 45.64342 13.02907 5397 ft 319 kts 33°
2026-05-07 09:26 45.66153 13.04627 4950 ft 312 kts 33°
2026-05-07 09:26 45.67926 13.06313 4604 ft 295 kts 34°
2026-05-07 09:26 45.69577 13.07882 4264 ft 280 kts 34°
2026-05-07 09:26 45.71150 13.09380 3930 ft 268 kts 34°
2026-05-07 09:27 45.72703 13.10862 3649 ft 266 kts 34°
2026-05-07 09:27 45.74236 13.12326 3464 ft 264 kts 34°
2026-05-07 09:27 45.77199 13.15150 3310 ft 254 kts 34°
2026-05-07 09:28 45.78666 13.16546 3226 ft 254 kts 34°
2026-05-07 09:28 45.80140 13.17948 3135 ft 248 kts 34°
2026-05-07 09:28 45.81536 13.19328 3057 ft 244 kts 39°
2026-05-07 09:28 45.82660 13.21053 2975 ft 233 kts 64°
2026-05-07 09:29 45.83033 13.23261 2894 ft 226 kts 89°
2026-05-07 09:29 45.82983 13.25489 2598 ft 225 kts 94°
2026-05-07 09:29 45.82908 13.27700 2313 ft 218 kts 92°
2026-05-07 09:29 45.82875 13.29818 2139 ft 205 kts 91°
2026-05-07 09:30 45.82865 13.31822 1815 ft 202 kts 91°
2026-05-07 09:30 45.82861 13.33750 1544 ft 186 kts 91°
2026-05-07 09:30 45.82856 13.35546 1304 ft 174 kts 91°
2026-05-07 09:30 45.82850 13.37242 1096 ft 167 kts 92°
2026-05-07 09:31 45.82844 13.38853 863 ft 155 kts 92°
2026-05-07 09:31 45.82849 13.40347 653 ft 151 kts 92°
2026-05-07 09:31 45.82812 13.41857 517 ft 148 kts 94°
2026-05-07 09:31 45.82809 13.43314 320 ft 143 kts 92°
2026-05-07 09:32 45.82799 13.44746 127 ft 145 kts 93°
2026-05-07 09:32 45.82787 13.46112 44 ft 118 kts 90°
2026-05-07 09:32 45.82782 13.46954 46 ft 63 kts 90°
2026-05-07 09:32 45.82784 13.47529 45 ft 40 kts 88°
2026-05-07 09:33 45.82707 13.47713 45 ft 13 kts 140°
2026-05-07 09:33 45.82632 13.47800 44 ft 13 kts 140°
2026-05-07 09:33 45.82560 13.47888 44 ft 13 kts 137°
2026-05-07 09:33 45.82504 13.47960 44 ft 9 kts 138°
2026-05-07 09:34 45.82449 13.48028 43 ft 14 kts 140°
2026-05-07 09:34 45.82349 13.48146 42 ft 17 kts 141°
2026-05-07 09:34 45.82311 13.48213 42 ft 7 kts 94°
2026-05-07 09:34 45.82317 13.48279 42 ft 5 kts 111°
2026-05-07 09:35 45.82308 13.48302 42 ft 0 kts 128°